RH
9 9 7 7 12 11 33 17 19 20 26 27 28 33 34 32 36 42 39 33 36 31 40 56 54 56 60 70 70 63 53 28 31 33 31 44 35 30 43 42 18 18 12 6 22 70 78 88 91
9 8 8 8 35 38 21 18 21 28 29 17 26 28 30 44 42 45 42 26 9 16 23 60 57 58 61 67 69 67 63 43 32 34 35 42 24 29 55 42 21 18 16 7 13 80 92 90 87
9 8 8 22 17 34 25 23 26 30 30 26 17 13 19 35 47 30 36 21 9 8 11 50 56 52 52 62 78 66 68 61 45 44 32 43 24 26 59 45 24 19 47 16 10 17 35 71 76
9 8 10 26 38 22 32 32 28 30 24 24 15 16 19 19 16 16 16 26 12 10 11 15 37 44 41 53 75 70 70 66 53 39 30 36 30 26 55 54 26 21 32 9 10 53 63 72 64
12 11 18 19 28 39 33 46 30 27 25 17 12 15 25 24 17 13 12 15 14 11 13 16 22 24 30 38 67 73 70 74 62 59 37 24 36 28 46 61 29 21 32 10 10 35 56 48 47
13 23 47 44 33 40 36 34 26 17 34 21 16 14 16 21 16 18 13 12 12 11 13 20 32 41 36 34 55 72 74 75 69 62 56 22 32 32 34 68 34 23 27 13 8 15 35 37 26
21 24 36 41 35 40 33 32 22 27 25 22 16 12 12 12 11 11 12 13 13 14 12 12 36 51 53 56 55 77 75 77 73 65 66 26 31 36 32 69 47 25 25 16 8 10 15 21 25
17 22 46 36 33 37 39 31 24 18 18 18 16 17 16 14 11 11 9 8 8 13 15 14 21 53 49 50 63 81 90 81 79 74 72 43 30 42 48 55 64 34 27 19 9 9 11 15 21
19 20 36 40 45 46 49 37 26 18 16 16 15 14 14 15 14 12 11 12 11 9 9 16 15 30 56 50 67 83 87 87 82 75 73 61 27 37 55 60 64 55 33 23 14 9 13 16 15
22 27 54 52 52 45 48 24 20 19 17 16 16 18 21 12 10 10 10 11 11 11 11 8 12 16 50 50 56 82 82 83 81 79 73 58 34 29 54 67 70 66 50 32 22 10 11 14 18
17 24 50 45 46 38 22 20 21 21 15 16 30 29 14 13 12 10 9 9 8 9 10 10 9 10 16 48 43 70 89 84 83 82 78 67 50 33 40 57 72 57 63 52 32 18 9 13 17
28 27 23 24 23 20 18 19 17 21 18 18 24 26 19 16 14 13 12 11 10 9 9 9 10 9 9 13 30 42 78 77 81 82 83 76 59 42 43 42 60 61 59 66 42 27 15 11 16
40 39 37 29 26 26 26 22 24 19 23 27 25 21 23 22 19 16 17 15 16 12 10 10 9 9 8 10 13 22 39 77 76 78 85 84 77 48 48 57 61 63 60 68 58 34 22 13 13
85 54 37 33 32 41 43 29 34 26 59 61 44 37 32 38 34 28 30 27 26 28 21 16 12 8 8 8 10 15 24 36 82 76 85 88 86 65 45 75 78 60 61 59 72 47 27 18 13
52 44 48 39 76 79 83 40 40 35 70 86 74 54 45 47 44 41 36 32 32 31 28 27 21 15 9 8 8 9 18 23 47 84 84 93 95 81 50 55 85 85 60 62 72 65 34 22 16
71 87 82 89 89 86 83 47 83 70 82 76 75 72 67 45 41 36 33 31 28 26 26 22 24 21 18 10 9 8 9 26 25 68 78 96 98 90 81 51 68 84 84 68 64 80 52 29 22
82 79 91 77 89 84 93 76 86 86 79 65 65 80 66 38 31 28 25 24 22 19 18 17 17 22 20 18 12 11 8 12 30 34 71 83 95 96 94 77 61 68 83 72 60 73 82 42 27
88 93 91 81 68 74 80 82 69 62 69 56 64 79 42 31 23 21 18 16 15 15 14 18 29 17 28 23 17 13 11 8 14 32 31 75 86 90 99 92 78 73 84 73 69 63 92 70 32
72 67 72 66 62 74 77 68 67 65 53 64 83 70 44 39 25 31 37 43 44 42 28 25 37 38 32 37 25 18 12 10 8 15 31 45 94 80 99 99 93 92 91 74 76 62 66 88 57
80 77 71 66 60 56 60 62 54 49 64 76 84 58 67 48 48 54 62 64 72 66 59 50 48 47 38 38 40 26 24 17 12 9 22 36 58 86 81 97 99 95 89 84 80 72 53 65 90
69 83 92 74 59 52 50 49 30 45 76 86 79 70 73 69 88 75 71 80 89 90 84 75 61 52 44 42 46 39 32 29 25 15 19 36 60 89 98 95 99 98 90 88 84 82 66 52 81
76 79 88 76 74 61 60 64 48 69 78 84 63 69 71 81 96 99 97 93 98 91 89 83 70 65 61 55 55 53 42 30 26 22 18 26 57 76 87 80 81 95 100 94 88 84 83 72 53
86 87 76 86 80 62 57 64 63 87 76 65 70 71 86 89 83 87 97 96 98 96 72 74 76 84 74 68 60 63 55 42 35 33 22 17 42 67 84 81 80 90 100 96 94 87 87 83 68
84 94 94 83 85 81 63 65 69 74 64 55 81 96 98 98 98 98 100 98 92 86 72 72 79 80 84 86 84 71 62 51 44 32 37 18 31 92 57 70 77 99 100 97 96 97 91 93 83
93 97 97 96 98 95 64 65 60 71 55 57 82 92 98 99 100 99 100 99 98 100 96 85 80 90 82 85 99 90 64 54 42 41 46 33 19 44 95 90 82 97 95 93 94 100 99 93 95
85 91 90 96 96 74 59 60 60 62 49 58 76 98 98 99 100 100 100 100 99 99 98 90 86 88 97 79 88 86 74 59 48 49 49 48 38 27 65 86 96 95 96 89 87 95 91 94 95
95 83 92 92 83 80 51 50 54 54 57 59 66 82 87 96 96 97 100 99 99 99 100 100 99 94 100 100 87 82 62 65 59 54 59 56 51 39 50 76 80 92 93 93 86 92 100 94 99
62 74 88 87 93 82 48 38 46 62 66 52 57 69 78 93 87 72 94 94 100 100 99 95 98 98 97 97 100 96 85 69 59 56 58 57 53 62 72 70 87 93 83 87 90 87 92 80 84
55 81 86 84 73 90 90 60 53 56 42 44 49 56 66 77 71 63 73 91 90 90 100 99 100 93 95 99 99 99 96 88 84 78 64 61 53 80 84 85 93 84 77 79 78 80 90 94 97
34 41 50 91 92 76 66 57 46 48 37 37 43 47 55 63 66 70 63 65 77 76 93 89 97 99 97 97 97 87 98 94 84 71 68 62 78 78 55 72 79 75 71 76 86 93 96 91 98
Wind_Speed
14 14 14 16 11 9 13 13 11 17 13 19 18 19 17 15 12 11 5 16 22 21 19 17 16 15 14 13 8 5 4 5 5 6 5 3 3 6 6 3 3 3 5 7 10 11 13 11 8
12 14 16 18 10 13 9 11 18 14 18 19 16 15 12 8 19 16 11 11 12 18 24 19 17 15 14 14 13 8 6 5 6 6 5 4 4 7 7 4 3 3 3 7 11 13 12 10 8
12 15 18 11 12 13 10 12 14 18 20 19 16 15 16 17 18 27 20 14 12 12 20 24 22 19 16 14 16 12 9 8 7 8 5 4 5 7 7 5 4 3 4 6 8 10 11 9 7
13 16 17 14 10 8 6 17 21 17 18 17 19 13 18 23 28 25 22 25 21 18 14 20 25 23 21 19 18 16 11 10 8 8 7 5 6 8 8 6 4 4 4 5 8 11 10 9 8
14 18 17 15 11 13 15 14 20 17 16 17 20 18 19 22 29 27 26 24 26 24 20 19 19 25 25 23 21 20 16 13 11 10 10 8 6 8 9 7 6 5 4 5 8 11 11 9 8
16 15 8 13 10 17 17 17 16 14 12 16 18 19 24 28 25 26 30 31 27 26 26 23 21 20 23 24 24 22 21 17 15 13 13 11 9 9 10 9 8 7 5 5 7 11 12 11 9
13 11 7 11 8 9 13 20 13 12 15 15 22 20 20 26 30 29 31 29 26 25 27 27 27 24 20 24 27 25 25 22 19 16 16 14 12 11 11 11 10 9 7 6 8 10 12 11 11
11 12 6 12 6 9 21 18 17 16 17 22 18 18 21 29 29 30 28 27 27 28 25 28 31 31 26 26 29 30 27 26 23 21 21 16 15 14 14 15 12 11 10 8 9 11 11 12 12
9 8 7 7 11 9 18 18 18 18 17 17 17 22 25 30 31 33 29 30 30 28 29 30 30 35 32 28 29 33 31 29 27 24 23 20 18 16 16 16 14 13 12 11 10 12 13 13 13
10 10 9 14 15 19 18 18 19 22 20 18 21 22 24 29 30 32 32 32 31 31 30 32 33 33 39 34 31 34 34 33 30 28 27 24 21 19 19 19 17 15 14 13 11 11 14 14 13
13 12 17 20 23 25 25 23 24 24 24 18 19 26 27 27 27 30 32 33 33 31 33 32 35 35 38 43 37 36 37 35 34 32 29 28 27 23 24 22 23 18 17 15 13 12 13 14 14
12 14 19 20 23 23 25 26 25 25 24 21 23 27 28 26 29 30 32 33 34 33 31 32 35 36 38 41 44 41 40 38 38 35 33 32 30 27 27 25 25 21 19 17 15 13 13 13 14
11 13 18 19 21 22 23 24 24 26 22 23 23 24 25 26 28 28 32 35 33 33 31 32 34 37 38 41 46 45 44 43 40 38 37 36 34 31 29 27 25 23 21 20 18 16 15 14 14
13 18 18 17 18 18 22 23 20 22 17 17 16 19 22 25 27 28 29 33 32 29 29 30 34 38 41 43 46 49 46 46 45 41 40 39 38 34 33 30 26 27 24 23 21 18 17 16 16
12 16 15 14 8 12 16 20 20 16 14 16 16 19 23 25 26 28 28 30 33 30 28 28 33 38 43 44 46 50 50 49 49 49 44 42 41 39 36 34 31 28 26 26 24 23 23 21 21
9 10 11 4 9 11 13 19 8 12 9 14 23 19 24 27 30 30 29 30 34 35 35 33 35 37 41 46 47 50 53 52 51 53 49 44 43 42 38 38 35 32 29 28 28 27 25 23 21
10 10 9 9 10 9 10 11 7 9 14 18 26 22 29 31 29 30 33 35 38 41 41 41 38 38 38 41 46 48 53 55 53 54 54 47 46 44 42 40 39 37 34 30 30 28 27 24 24
9 11 12 11 13 14 16 21 22 15 16 22 25 27 30 29 28 30 34 37 39 43 45 42 40 41 39 41 41 46 50 55 57 54 56 55 48 48 46 43 42 40 40 32 30 30 29 28 25
14 17 17 18 13 17 18 22 19 17 17 22 23 33 28 31 30 32 34 36 35 38 43 45 45 43 44 43 45 44 49 52 57 60 56 57 51 51 48 47 44 43 42 34 31 31 31 30 28
13 16 19 16 15 17 20 25 22 14 21 22 25 30 30 32 33 31 29 31 28 30 33 38 38 37 41 42 45 45 42 44 47 58 59 56 60 55 55 49 48 48 43 40 36 35 34 33 32
14 14 13 12 14 21 22 28 23 14 21 19 25 27 29 30 29 31 27 22 21 25 28 30 31 30 36 44 42 46 45 42 44 51 58 58 58 59 54 52 50 48 46 43 37 37 35 34 33
13 11 11 18 9 8 3 7 8 18 14 21 23 25 27 22 20 26 29 22 22 26 26 25 26 30 32 40 41 46 47 46 44 46 53 63 57 59 58 55 51 50 47 44 39 38 38 35 35
7 12 11 3 9 13 17 9 9 18 16 18 20 23 18 19 23 20 22 24 19 21 20 21 20 21 27 31 37 43 48 46 41 42 45 58 62 58 60 59 60 51 45 43 41 40 41 38 38
3 6 7 3 9 5 12 12 9 15 12 16 15 15 15 12 16 16 21 27 21 16 19 21 14 17 22 25 36 36 44 42 39 38 40 51 59 56 62 62 55 44 42 42 39 41 44 43 40
6 10 3 3 4 4 10 9 15 16 14 13 12 12 11 12 15 11 16 21 16 18 22 15 15 16 17 21 28 35 39 41 38 33 36 44 59 63 50 63 58 53 42 42 38 40 40 49 44
2 3 3 4 2 1 9 7 6 10 12 11 12 12 10 10 14 15 17 20 19 19 19 10 12 11 13 14 22 26 33 37 36 35 32 37 49 60 54 53 42 43 37 39 44 45 42 49 43
2 3 5 4 9 4 7 7 10 12 9 11 10 9 10 9 9 13 16 18 18 21 18 16 15 14 14 13 14 21 28 38 40 39 37 33 40 45 49 45 47 41 42 31 35 43 36 42 44
3 6 2 1 2 4 6 8 7 8 10 11 10 9 9 8 10 12 11 16 21 19 21 20 12 11 15 17 20 22 26 33 36 38 38 34 35 33 37 42 46 32 33 34 34 31 32 38 46
4 2 2 5 5 2 3 4 10 12 12 11 11 11 10 11 12 13 13 16 19 21 23 29 22 12 10 12 11 20 26 26 30 32 34 31 38 34 30 39 25 28 35 33 37 38 39 37 36
9 7 7 4 1 7 4 9 10 11 10 10 10 10 11 10 11 14 16 17 17 20 17 23 15 12 9 3 11 15 7 23 27 27 31 29 28 30 30 32 32 34 30 28 34 36 40 40 36
Wind_Direction
226 216 208 201 197 218 228 231 222 211 202 217 196 206 188 197 207 218 207 227 237 239 227 219 215 216 211 209 210 218 221 227 196 176 164 159 159 156 151 142 112 80 72 105 126 137 145 159 153
218 215 203 193 203 215 244 236 216 219 223 225 214 217 186 195 230 226 216 233 238 232 227 220 219 220 216 208 207 221 220 232 237 213 187 174 175 170 161 160 135 105 86 115 143 161 162 168 168
205 220 199 195 217 213 240 158 179 216 232 231 229 215 210 212 226 228 224 237 250 245 227 220 221 223 232 219 206 222 220 222 230 228 210 201 184 182 174 178 160 139 114 130 157 169 186 187 200
195 203 214 211 202 220 212 216 198 221 241 241 232 227 224 233 241 247 242 240 252 249 239 228 228 228 233 226 211 220 227 223 227 227 233 224 208 191 185 190 178 164 151 153 165 167 174 184 194
201 193 203 219 211 229 220 222 213 229 236 240 240 221 237 235 240 243 245 240 240 243 239 236 234 233 232 230 217 214 226 225 218 220 231 226 221 213 197 198 200 196 180 175 178 176 178 189 192
187 195 197 221 212 232 226 243 230 224 218 246 249 232 239 251 256 251 251 246 241 238 236 238 235 233 226 231 222 218 221 226 224 220 222 226 215 217 214 209 213 212 205 190 190 186 186 190 195
187 194 232 210 176 218 237 240 245 223 224 238 251 260 251 254 257 256 256 256 252 244 242 238 233 231 231 225 225 220 221 225 223 222 225 229 218 211 215 220 219 221 223 207 201 196 194 194 192
211 199 210 230 209 240 232 251 261 254 249 249 267 266 264 255 259 261 264 265 260 255 241 240 233 230 234 235 224 222 219 224 224 220 221 228 224 214 211 217 221 223 228 223 212 201 199 196 196
215 221 215 246 242 225 254 254 263 264 269 268 267 262 262 265 267 266 261 263 263 258 255 239 235 233 229 235 230 225 223 222 225 224 225 228 226 220 217 218 221 229 232 233 227 208 199 200 202
223 226 227 228 224 228 249 267 268 273 272 276 273 271 268 261 269 274 272 265 260 260 254 253 239 233 229 231 233 226 227 227 225 225 228 227 226 225 221 218 221 231 239 241 242 231 213 203 206
245 230 241 242 247 261 268 271 275 277 271 271 266 259 269 280 277 273 272 271 265 259 256 252 250 239 232 229 233 230 226 227 225 225 227 229 227 220 223 224 222 228 234 241 247 243 234 222 214
248 245 256 257 262 263 268 272 273 274 280 270 266 272 276 274 273 272 272 269 267 262 256 251 248 246 238 233 229 231 228 228 227 226 228 231 232 226 227 226 226 230 236 239 244 249 247 238 232
264 259 264 267 268 273 271 271 278 273 279 273 272 271 278 278 276 273 272 271 270 265 260 253 247 244 242 235 231 231 231 228 228 227 228 229 235 233 231 230 225 229 232 236 240 243 248 250 242
247 268 276 273 274 277 276 274 269 276 283 285 269 271 273 278 278 274 269 270 270 270 265 257 250 245 240 239 233 228 230 228 228 229 228 230 231 231 233 229 227 227 229 235 237 240 244 248 247
296 293 291 291 280 259 269 276 288 279 236 272 285 282 278 279 283 280 278 273 274 275 269 267 256 248 242 238 236 233 226 228 227 228 227 229 228 231 232 233 233 233 227 236 234 237 236 236 239
308 298 283 207 229 282 286 278 307 303 257 279 282 287 286 281 277 286 287 280 276 278 272 271 264 252 246 241 236 234 231 228 226 228 227 226 230 229 229 232 234 234 234 233 237 238 241 243 248
248 261 269 265 283 255 266 267 188 261 270 285 283 280 281 281 289 286 283 279 275 274 269 267 259 257 249 244 240 234 233 230 227 225 228 226 227 231 230 232 235 238 236 231 239 241 243 245 249
297 295 285 267 282 268 256 262 270 267 273 279 271 271 284 291 292 287 281 277 271 269 265 266 261 251 248 243 239 236 233 232 228 227 225 228 230 227 234 232 232 234 237 235 239 242 246 246 246
288 289 283 280 257 271 269 271 270 259 272 269 262 272 289 289 289 288 291 290 277 263 262 258 260 249 245 240 235 236 235 231 229 228 226 227 226 231 231 233 231 230 236 238 238 243 243 247 247
284 283 273 281 272 269 280 275 267 259 255 264 275 285 297 299 306 309 308 300 293 278 261 261 257 250 241 236 237 231 235 238 236 230 227 225 226 228 231 232 232 234 236 237 236 239 242 243 247
286 279 275 273 272 268 278 286 257 224 238 264 279 303 303 308 309 313 313 301 287 296 278 268 262 253 239 232 232 230 229 232 231 233 227 226 226 226 227 229 234 233 238 238 237 239 243 245 248
305 285 270 283 281 271 183 294 211 199 230 264 296 303 301 304 309 311 316 312 294 294 281 271 273 257 241 233 235 227 228 230 233 231 228 224 227 226 225 230 234 233 235 238 237 240 243 244 245
286 301 298 247 260 279 277 247 252 205 248 285 309 314 315 305 310 312 322 319 317 304 282 275 271 272 253 240 240 234 226 227 230 233 233 225 226 227 225 228 237 234 226 238 238 238 243 246 249
344 318 294 263 261 269 239 217 209 221 267 304 325 327 333 329 317 300 321 337 319 323 296 267 276 275 264 252 243 241 231 230 232 232 231 226 225 219 225 224 228 221 232 239 247 242 245 246 247
359 311 205 226 197 236 168 203 247 269 290 305 339 336 344 356 2 332 331 353 346 356 353 246 264 280 266 254 246 239 229 226 228 232 229 226 223 222 227 216 225 242 230 240 245 244 248 254 246
268 359 336 320 335 307 185 233 227 257 292 322 345 352 346 347 357 360 357 9 358 350 349 309 269 287 292 269 250 241 229 227 230 234 231 231 223 225 232 232 232 232 234 244 248 259 253 254 261
164 329 279 292 284 292 228 223 254 266 286 316 331 348 344 346 332 352 24 18 358 358 347 333 322 298 294 291 260 245 237 230 229 232 236 236 224 222 228 234 233 229 239 237 253 253 252 259 262
313 300 289 227 297 294 253 240 237 258 266 301 316 342 4 18 355 355 9 23 17 10 355 350 323 305 315 298 261 236 235 235 234 233 237 234 220 211 220 228 240 223 236 245 248 258 258 256 263
290 306 306 270 248 232 298 256 218 255 282 294 308 328 351 14 19 17 17 18 17 9 25 24 12 354 301 291 267 248 228 226 227 224 222 221 215 213 215 211 222 231 232 247 245 251 252 258 267
270 252 242 231 316 253 271 274 281 293 293 292 300 315 329 360 15 23 21 23 21 25 17 11 6 19 354 283 20 207 257 223 203 201 204 198 199 200 207 222 221 235 241 246 242 246 250 257 270